Welcome to the New NWS' Forecast!
Most changes are behind the scenes, but click here for differences you might notice.
Latest weather observations around

East Milton (KMQE)

Using English Units (Switch to International System of Units)
Date/ Time (EDT) Wind (mph) Vis. (mi) Weather Sky Cond. Temp (°F) Rel. Humidity Wind Chill (°F) Heat Index (°F) Pressure Precip. (in)
Air Dwpt 6 hour Altimeter (inHg) Sea level (inHg) 1 hr 3 hr 6 hr
Max Min
Jul 19 14:56 6   Clear   77 46     33%   76 30.08 30.1      
Jul 19 13:56 NW 6   Clear   78 49     36%   77 30.09 30.11      
Jul 19 12:56 3   Clear   76 48     37%   75 30.09 30.11      
Jul 19 11:56 3   Clear   75 47     37%   74 30.1 30.12      
Jul 19 10:56 ENE 7   Clear   73 47     39%   72 30.1 30.12      
Jul 19 09:56 NNE 5   Clear   71 49     45%   70 30.09 30.11      
Jul 19 08:56 5   Clear   69 51     53%     30.09 30.11      
Jul 19 07:56 N 6   Clear   63 52     67%     30.07 30.09      
Jul 19 06:56 NNW 9   Clear   58 50     75%     30.06 30.08      
Jul 19 05:56 N 10   Clear   56 50     80%     30.05 30.07      
Jul 19 04:56 N 10   Clear   57 50     77%     30.03 30.06      
Jul 19 03:56 NNW 9   Clear   58 50     75%     30.02 30.04      
Jul 19 02:56 N 10   Clear   60 50     69%     30.01 30.03      
Jul 19 01:56 N 11   Clear   61 50     67%     30 30.02      
Jul 19 00:56 N 10   Clear   62 51     67%     29.98 30      
Jul 18 23:56 NNW 10   Clear   63 51     65%     29.97 29.99      
Jul 18 22:56 NNW 10   Clear   66 50     56%     29.96 29.98      
Jul 18 21:56 NNW 9   Clear   67 50     55%     29.95 29.97      
Jul 18 20:56 NNW 9   Clear   68 50     53%     29.93 29.95      
Jul 18 19:56 NNW 7   Clear   71 50     47%   70 29.92 29.93      
Jul 18 18:56 5   Clear   74 52     46%   73 29.89 29.91      
Jul 18 17:56 N 9   Clear   77 53     43%   76 29.89 29.91      
Jul 18 16:56 NW 9   Clear   79 54     42%   79 29.87 29.89      
Jul 18 15:56 7   Clear   79 57     47%   79 29.87 29.88      
Jul 18 14:56 NW 10   Clear   78 54     43%   78 29.87 29.88      
Jul 18 13:56 NW 8   Clear   79 58     49%   79 29.87 29.88      
Jul 18 12:56 7   Clear   77 58     52%   77 29.87 29.88      
Jul 18 11:56 NNW 11   Clear   76 58     54%   76 29.87 29.88      
Jul 18 10:56 NNW 13   Clear   74 60     62%   74 29.87 29.89      
Jul 18 09:56 NNW 13   Clear   71 61     70%   71 29.87 29.89      
Jul 18 08:56 NNW 8   Clear   69 65     87%     29.87 29.89      
Jul 18 07:56 NNW 11   Clear   66 65     96%     29.85 29.87      
Jul 18 06:56 N 10   Clear   67 67     100%     29.84 29.86      
Jul 18 05:56 NNW 9   Clear   67 67     100%     29.82 29.84      
Jul 18 04:56 NNW 8   Clear   68 68     100%     29.8 29.82   0  
Jul 18 03:56 WNW 7   Clear   68 68     100%     29.78 29.8 0    
Jul 18 02:56 W 9   Clear   68 68     100%     29.77 29.79      
Jul 18 01:56 SW 7   Clear   68 68     100%     29.77 29.79 0   0
Jul 18 00:56 SW 8   Clear   68 68     100%     29.78 29.8 0    
Jul 17 23:56 SSW 10   Clear   68 68     100%     29.79 29.8      
Jul 17 22:56 WNW 10   Clear   67 67     100%     29.78 29.8   0  
Jul 17 21:56 W 13   Clear   67 67     100%     29.8 29.81      
Jul 17 20:56 SW 8   Clear   68 68     100%     29.82 29.83 0    
Jul 17 19:56 SW 9   Clear   68 68     100%     29.81 29.83 0   1
Jul 17 18:56 S 10   Clear   68 68     100%     29.8 29.82 0    
Jul 17 17:56 E 8   Clear   68 68     100%     29.8 29.82 1    
Jul 17 16:56 7   Clear   72 67     84%   73 29.82 29.83      
Jul 17 15:56 E 9   Clear   71 67     87%   72 29.82 29.83      
Jul 17 14:56 N 8   Clear   73 67     81%   74 29.82 29.84      
Jul 17 13:56 SSW 14   Clear   86 74     67%   94 29.81 29.83      
Jul 17 12:56 S 17   Clear   84 74     72%   91 29.81 29.83      
Jul 17 11:56 SSW 20   Clear and Windy   85 74     70%   92 29.83 29.84      
Jul 17 10:56 S 9   Clear   84 74     72%   91 29.85 29.86      
Jul 17 09:56 SSW 15   Clear   81 73     77%   86 29.86 29.87      
Jul 17 08:56 SSW 11   Clear   79 72     79%   82 29.87 29.88      
Jul 17 07:56 SSW 14   Clear   75 71     88%   76 29.87 29.89      
Jul 17 06:56 S 14   Clear   72 71     97%   73 29.88 29.9      
Jul 17 05:56 SSW 13   Clear   71 71     100%   73 29.89 29.91      
Jul 17 04:56 S 13   Clear   71 71     100%   73 29.88 29.9      
Jul 17 03:56 S 11   Clear   71 71     100%   73 29.89 29.91      
Jul 17 02:56 S 13   Clear   71 71     100%   73 29.9 29.92      
Jul 17 01:56 S 11   Clear   71 70     96%   72 29.92 29.93      
Jul 17 00:56 S 9   Clear   71 71     100%   73 29.93 29.94      
Jul 16 23:56 S 10   Clear   72 71     97%   73 29.94 29.96      
Jul 16 22:56 S 13   Clear   72 71     97%   73 29.95 29.97      
Jul 16 21:56 S 15   Clear   74 71     91%   75 29.95 29.97      
Jul 16 20:56 S 14   Clear   76 70     82%   77 29.94 29.96      
Jul 16 19:56 S 10   Clear   78 70     76%   79 29.94 29.96      
Jul 16 18:56 S 13   Clear   81 69     67%   84 29.94 29.95      
Jul 16 17:56 SE 8   Clear   82 73     74%   87 29.94 29.96      
Jul 16 16:56 ESE 8   Clear   82 70     67%   86 29.95 29.97      
Jul 16 15:56 ESE 9   Clear   80 71     74%   84 29.96 29.98      
Jul 16 14:56 ENE 8   Clear   83 71     67%   88 29.96 29.98      
May 15 04:56 SSW 14   Clear   54 54     100%     29.85 29.88      
May 14 20:56 S 11   Clear   58 52     81%     29.88 29.91      
May 13 23:56 S 10   Clear   47 46     97% 42   30.06 30.1      
May 12 16:56 NNE 8   Clear   47 47     100% 43   30.1 30.13 0 0  
May 12 02:56 NE 10   Clear   50 39     66% 46   30.15 30.18      
Jun 11 15:56 SW 18   Clear   88 58     36%   87 29.93 29.94      
Notice The following observation data may not be complete
Jun 09 13:56 WNW 15   Clear     49      %     29.63 29.65      
Notice The following observation data may not be complete
Jun 09 08:56     Clear            %              
Jun 08 21:56 SE 7   Clear   57 40     53%     29.87 29.89      
Jun 08 14:56 SE 9   Clear   73 42     33%   72 29.97 30      
Jun 08 13:56 S 9   Clear   76 44     32%   75 29.99 30.01      
Jun 08 08:56 3   Clear   65 48     54%     30.04 30.07      
Jun 07 22:56 S 10   Clear   56 38     51%     30.02 30.04      
Jun 07 19:56 ESE 7   Clear   60 41     49%     29.99 30.02      
Jun 07 14:56 NE 11   Clear   64 42     45%     29.95 29.98      
Jun 07 11:56 7   Clear   61 50     67%     29.96 29.99      
Jun 06 03:56 NE 17   Clear   49 48     97% 43   29.75 29.79 0    
Jun 05 18:56 ENE 17   Clear   51 50     96%     29.81 29.85 0